Location: Las Navas
(40.6024°N, 4.3345°W)
Time: 00:14:10
(UTC+00:00)

SJ-6B - Pass Details

Date: 03 April 2020
Orbit: 509 x 582 km, 97.6° (Epoch: 27 May)

Event Time Altitude Azimuth Distance (km) Brightness Sun altitude
Exits shadow 19:12:52 - 129° (SE) 2,312 5.4 -6.1°
Reaches altitude 10° 19:14:07 10° 120° (ESE) 1,882 4.9 -6.3°
Maximum altitude 19:17:20 23° 68° (ENE) 1,264 4.2 -6.9°
Drops below altitude 10° 19:20:34 10° 16° (NNE) 1,908 5.6 -7.5°
Sets 19:23:05 0° 2° (N) 2,814 6.6 -8.0°
